[[{"header":{"parameterUnit":"m.s-1","parameterCategory":1,"la1":30.2991,"la2":30.254,"lo1":-89.0895,"lo2":-89.0444,"dy":0.0017,"dx":0.0017,"nx":28,"ny":28,"refTime":"2025-05-20T21:00:00:Z","depth":0,"parameterNumber":2,"parameterNumberName":"U-component_of_WINDS"},"data":[0,0,0,0,0,0,0,0,0,0,0,0,0,0,0,0,0,0,0,0,0,0,0,0,0,0,0,0,0,0,0,0,0,0,0,0,0,0,0,0,0,0,0,0,0,0,0,0,0,0,0,0,0,0,0,0,0,0,0.7318,0.7318,0,0.7381,0.7382,0.7383,0.7406,0.7406,0.7405,0.7405,0.747,0.7472,0.7474,0,0,0,0,0,0,0,0,0,0,0,0,0,0.7215,0.7217,0.7317,0.7318,0.7319,0.7381,0.7382,0.7383,0.7406,0.7406,0.7405,0.7405,0.747,0.7472,0.7474,0,0,0,0,0,0,0,0,0,0,0,0,0,0.7267,0.7218,0.7317,0.7338,0.7341,0.7381,0.7382,0.7383,0.7406,0.7406,0.7405,0.7405,0.7469,0.7472,0.7475,0.7499,0,0,0.7483,0.7485,0,0,0,0,0,0,0,0,0.7264,0.7271,0.7334,0.7337,0.734,0.7385,0.737,0.7422,0.7406,0.7381,0.7405,0.7405,0.7442,0.7447,0.746,0.7502,0.7505,0.7484,0.7485,0.7487,0.7487,0,0,0,0,0,0,0,0.7261,0.7268,0.7343,0.7335,0.7338,0.7344,0.7351,0.738,0.7413,0.7383,0.7385,0.7392,0.7444,0.7457,0.7462,0.7506,0.7484,0.7486,0.7488,0.7489,0.7571,0.7571,0,0,0,0,0,0,0.7254,0.7265,0.7341,0.7345,0.73,0.7346,0.7354,0.7371,0.7412,0.7418,0.7392,0.7393,0.7452,0.7458,0.7464,0.7495,0.7487,0.7489,0.7491,0.757,0.7571,0.7571,0,0,0,0,0,0,0.7251,0.726,0.7338,0.7305,0.7316,0.7348,0.7367,0.7372,0.7386,0.7419,0.7425,0.74,0.7452,0.746,0.749,0.7498,0.7491,0.7493,0.757,0.757,0.7571,0.7558,0,0,0,0,0,0,0.7248,0.7259,0.7269,0.7306,0.7317,0.7363,0.7367,0.7374,0.7391,0.7392,0.7428,0.7434,0.7453,0.7486,0.7493,0.7502,0.7496,0.7569,0.757,0.7571,0.7558,0.7558,0.7558,0,0,0,0,0,0.7245,0.7263,0.7269,0.7278,0.733,0.7364,0.737,0.7392,0.7391,0.7401,0.7423,0.7433,0.7496,0.7488,0.7497,0.7507,0.7569,0.757,0.7571,0.7558,0.7558,0.7558,0,0,0,0,0,0,0.7226,0.7268,0.7276,0.7306,0.7331,0.7367,0.7381,0.7391,0.7417,0.7417,0.7442,0.745,0.7478,0.7495,0.7486,0.7532,0.7533,0.7536,0.752,0.7521,0.7521,0.7516,0.7498,0,0,0,0,0,0.7226,0.725,0.7285,0.7308,0.732,0.7348,0.7363,0.7378,0.7404,0.7415,0.7439,0.7464,0.749,0.7506,0.7532,0.756,0.7569,0.7571,0.7571,0.7572,0.7574,0.759,0.7592,0.7574,0.7574,0.7574,0,0,0.7225,0.7251,0.7264,0.7305,0.7326,0.735,0.7357,0.7382,0.74,0.7419,0.7449,0.7467,0.7497,0.7527,0.7541,0.7542,0.758,0.7573,0.7573,0.7575,0.7591,0.7593,0.7594,0.7575,0.7575,0.7575,0,0,0.7236,0.7258,0.728,0.7301,0.7332,0.7351,0.7356,0.7391,0.7404,0.7434,0.7449,0.747,0.7514,0.7534,0.7551,0.7569,0.7579,0.7576,0.7578,0.7594,0.7595,0.7596,0.7603,0.7605,0.7578,0.7578,0.7578,0,0.7231,0.7268,0.729,0.7314,0.7332,0.735,0.7372,0.7391,0.7429,0.7441,0.7442,0.7496,0.7518,0.7553,0.7557,0.7569,0.7576,0.7573,0.7593,0.7595,0.7596,0.7603,0.7605,0.7578,0.7578,0.7578,0.7578,0,0.726,0.7285,0.7299,0.7336,0.7355,0.7378,0.7403,0.742,0.7432,0.745,0.7481,0.7507,0.7538,0.7547,0.756,0.7584,0.7584,0.7588,0.7589,0.7597,0.7604,0.7606,0.7577,0.7577,0.7577,0.7578,0,0,0.7262,0.731,0.7315,0.7332,0.7368,0.7388,0.7412,0.7442,0.7456,0.7481,0.7502,0.7538,0.7542,0.7561,0.7575,0.7589,0.7602,0.7592,0.7593,0.7593,0.763,0.7627,0.763,0.7609,0.7609,0.761,0.7628,0,0.7278,0.7322,0.7342,0.7377,0.74,0.7418,0.7438,0.7462,0.748,0.7502,0.7521,0.7547,0.7551,0.7562,0.7576,0.7597,0.761,0.7596,0.7628,0.7629,0.7621,0.7633,0.763,0.7646,0.7631,0.7631,0.7631,0,0.7303,0.7328,0.7365,0.7399,0.7409,0.7428,0.7457,0.7478,0.7506,0.7517,0.7538,0.7552,0.7577,0.7576,0.7611,0.7601,0.7615,0.7628,0.7629,0.7633,0.7631,0.7638,0.7651,0.7654,0.7636,0.7635,0.7635,0,0.7301,0.7344,0.7372,0.7386,0.7426,0.7438,0.7455,0.7482,0.7499,0.7525,0.7536,0.7564,0.7579,0.76,0.7621,0.7618,0.7654,0.7655,0.7665,0.7664,0.7672,0.7672,0.7689,0.7681,0.768,0.768,0.768,0,0.7317,0.7339,0.7372,0.7389,0.7414,0.7437,0.7461,0.7479,0.7503,0.7524,0.754,0.756,0.7586,0.7608,0.7625,0.7651,0.7658,0.7668,0.7673,0.7667,0.7666,0.7677,0.7677,0.7681,0.7681,0.7681,0.7681,0,0.7319,0.7342,0.7374,0.7408,0.7417,0.7434,0.7464,0.7481,0.7499,0.7525,0.7533,0.7561,0.7588,0.7611,0.7647,0.7658,0.7685,0.769,0.7676,0.7679,0.7688,0.7686,0.7713,0.7717,0.7705,0.7706,0.7706,0,0.7328,0.7345,0.7382,0.7397,0.7414,0.7438,0.7455,0.7478,0.7496,0.7528,0.7541,0.757,0.7594,0.7636,0.766,0.7687,0.7693,0.77,0.7697,0.7691,0.7693,0.7692,0.7694,0.77,0.77,0.77,0.77,0,0.7341,0.7352,0.7376,0.7405,0.7425,0.7449,0.7473,0.7484,0.7511,0.753,0.7558,0.7576,0.7612,0.764,0.767,0.7687,0.7698,0.7701,0.7705,0.77,0.7691,0.7696,0.7677,0.77,0.77,0.77,0.77,0.77,0.7347,0.7364,0.7392,0.7419,0.7439,0.7461,0.7479,0.7499,0.7523,0.7555,0.7566,0.7595,0.7622,0.7663,0.768,0.7703,0.7704,0.771,0.7711,0.7712,0.7712,0.7687,0.7708,0.7708,0.7708,0.7708,0.7708,0,0.7362,0.7381,0.7405,0.7438,0.7459,0.7468,0.7495,0.7512,0.7537,0.7561,0.7584,0.7616,0.7643,0.7669,0.7697,0.771,0.7716,0.7717,0.7716,0.772,0.7709,0.7703,0.7711,0.7711,0.7711,0.7711,0.7711,0.7711,0.7372,0.74,0.7414,0.7452,0.7471,0.75,0.7514,0.7534,0.7554,0.7589,0.7612,0.7628,0.7653,0.7683,0.7708,0.7715,0.7724,0.7724,0.7732,0.7721,0.7721,0.772,0.7715,0.7726,0.7726,0.7742,0.7742,0.7742]},{"header":{"parameterUnit":"m.s-1","parameterCategory":1,"la1":30.2991,"la2":30.254,"lo1":-89.0895,"lo2":-89.0444,"dy":0.0017,"dx":0.0017,"nx":28,"ny":28,"refTime":"2025-05-20T21:00:00:Z","depth":0,"parameterNumber":3,"parameterNumberName":"V-component_of_WINDS"},"data":[0,0,0,0,0,0,0,0,0,0,0,0,0,0,0,0,0,0,0,0,0,0,0,0,0,0,0,0,0,0,0,0,0,0,0,0,0,0,0,0,0,0,0,0,0,0,0,0,0,0,0,0,0,0,0,0,0,0,6.2369,6.2368,0,6.2298,6.2297,6.2296,6.2262,6.2262,6.2262,6.2262,6.2183,6.2181,6.2179,0,0,0,0,0,0,0,0,0,0,0,0,0,6.2472,6.247,6.2369,6.2368,6.2367,6.2298,6.2297,6.2296,6.2262,6.2262,6.2262,6.2262,6.2184,6.2181,6.2179,0,0,0,0,0,0,0,0,0,0,0,0,0,6.2416,6.2469,6.2369,6.2342,6.2339,6.2298,6.2297,6.2296,6.2261,6.2262,6.2262,6.2262,6.2185,6.2181,6.2178,6.2158,0,0,6.2169,6.2167,0,0,0,0,0,0,0,0,6.242,6.2413,6.2347,6.2344,6.234,6.2289,6.2304,6.2249,6.2261,6.2291,6.2262,6.2262,6.2218,6.2212,6.2198,6.2154,6.2151,6.2168,6.2166,6.2165,6.2164,0,0,0,0,0,0,0,6.2423,6.2415,6.2341,6.2346,6.2342,6.2332,6.2324,6.2294,6.2255,6.2288,6.2285,6.2278,6.2216,6.2201,6.2196,6.2149,6.2168,6.2166,6.2164,6.2162,6.2087,6.2086,0,0,0,0,0,0,6.2432,6.2419,6.2343,6.2338,6.2381,6.233,6.2321,6.2305,6.2255,6.2247,6.2278,6.2276,6.2207,6.22,6.2193,6.2167,6.2165,6.2162,6.216,6.2087,6.2087,6.2086,0,0,0,0,0,0,6.2435,6.2426,6.2346,6.2378,6.2367,6.2328,6.231,6.2304,6.2289,6.2247,6.224,6.227,6.2207,6.2198,6.2168,6.2164,6.2161,6.2158,6.2087,6.2087,6.2086,6.2113,0,0,0,0,0,0,6.2438,6.2427,6.2419,6.2378,6.2366,6.2322,6.231,6.2302,6.2284,6.2282,6.2238,6.2231,6.2206,6.2173,6.2164,6.2159,6.2155,6.2087,6.2087,6.2087,6.2113,6.2114,6.2116,0,0,0,0,0,6.2442,6.2428,6.2419,6.241,6.2356,6.2322,6.2315,6.2288,6.2284,6.2276,6.2249,6.2232,6.2166,6.217,6.216,6.2154,6.2087,6.2087,6.2087,6.2112,6.2114,6.2116,0,0,0,0,0,0,6.2467,6.2422,6.2412,6.2385,6.2358,6.2317,6.2305,6.229,6.2262,6.2261,6.2227,6.2218,6.2191,6.2169,6.2175,6.2132,6.2125,6.2123,6.2147,6.2149,6.215,6.2156,6.2153,0,0,0,0,0,6.247,6.2448,6.241,6.2389,6.2377,6.2344,6.2328,6.231,6.228,6.2268,6.2239,6.2209,6.2182,6.2164,6.2136,6.211,6.21,6.2101,6.2102,6.2104,6.2102,6.2088,6.2088,6.2086,6.2086,6.2086,0,0,6.2475,6.2448,6.2435,6.2394,6.2371,6.2349,6.2334,6.231,6.2293,6.2263,6.2234,6.2212,6.2177,6.2149,6.2135,6.213,6.2101,6.2104,6.2105,6.2102,6.2088,6.2088,6.2088,6.2086,6.2086,6.2086,0,0,6.2472,6.245,6.2431,6.241,6.2376,6.2355,6.2351,6.2312,6.2297,6.2268,6.2246,6.2224,6.2177,6.2154,6.2135,6.2128,6.2111,6.2119,6.2126,6.2113,6.2113,6.2113,6.2111,6.2111,6.2118,6.2118,6.2118,0,6.2482,6.2449,6.2423,6.2402,6.2384,6.236,6.2341,6.232,6.2279,6.2267,6.2262,6.2205,6.2179,6.2146,6.2145,6.2131,6.2125,6.2124,6.2116,6.2115,6.2115,6.2113,6.2112,6.2119,6.2119,6.2119,6.2119,0,6.2463,6.244,6.2429,6.2393,6.2374,6.2354,6.2325,6.2309,6.2293,6.2272,6.2243,6.2212,6.2178,6.2169,6.2152,6.2134,6.2133,6.2122,6.2114,6.2117,6.2114,6.2113,6.2121,6.2121,6.212,6.212,0,0,6.2472,6.2425,6.2421,6.2405,6.2368,6.2349,6.2328,6.2298,6.2285,6.2258,6.2239,6.2202,6.2193,6.2172,6.2153,6.2141,6.2139,6.2133,6.2131,6.2135,6.2118,6.2126,6.2126,6.2128,6.2128,6.2128,6.2121,0,6.2465,6.2428,6.2405,6.2377,6.2356,6.2334,6.2316,6.2291,6.2271,6.2249,6.2227,6.2201,6.2191,6.2179,6.2167,6.2142,6.2135,6.2142,6.211,6.2109,6.212,6.2124,6.2132,6.2127,6.212,6.212,6.212,0,6.245,6.2427,6.2397,6.2365,6.2355,6.2339,6.2311,6.2291,6.2262,6.2249,6.2228,6.2209,6.2186,6.218,6.2148,6.2153,6.2139,6.2125,6.2124,6.212,6.2114,6.212,6.2125,6.2125,6.2118,6.2118,6.2118,0,6.2461,6.2422,6.2399,6.2386,6.2348,6.2337,6.232,6.2292,6.2276,6.2251,6.224,6.2212,6.2196,6.2174,6.2148,6.2147,6.2119,6.2111,6.2107,6.2108,6.2101,6.2102,6.2104,6.2092,6.2092,6.2092,6.2092,0,6.2455,6.2438,6.2404,6.239,6.2371,6.2346,6.2326,6.2307,6.2283,6.2265,6.2243,6.2226,6.2193,6.2172,6.2152,6.2129,6.2122,6.211,6.2105,6.2112,6.2113,6.2101,6.2101,6.2092,6.2092,6.2092,6.2092,0,6.2463,6.244,6.2414,6.2381,6.2372,6.2359,6.233,6.2316,6.2296,6.2274,6.2267,6.2235,6.221,6.2183,6.2147,6.2133,6.2111,6.2104,6.2122,6.2119,6.2116,6.2117,6.2111,6.2109,6.2099,6.2099,6.2099,0,6.246,6.2447,6.2414,6.2401,6.2386,6.2365,6.235,6.2325,6.2309,6.2277,6.2267,6.2241,6.2218,6.2178,6.2151,6.2125,6.2116,6.2116,6.2112,6.212,6.2117,6.2118,6.2117,6.2117,6.2117,6.2118,6.2118,0,6.2458,6.2448,6.2428,6.2404,6.2387,6.2366,6.2345,6.2335,6.2306,6.229,6.2265,6.2248,6.2214,6.2187,6.2158,6.2139,6.2124,6.212,6.2118,6.2124,6.2136,6.213,6.2126,6.212,6.212,6.2119,6.2119,6.2119,6.2461,6.2449,6.2425,6.2403,6.2385,6.2366,6.2352,6.2332,6.2311,6.2283,6.2269,6.2245,6.2218,6.2177,6.216,6.214,6.2135,6.2131,6.213,6.213,6.2132,6.214,6.2134,6.2134,6.2134,6.2134,6.2134,0,6.2458,6.2442,6.2423,6.2395,6.2379,6.2368,6.2344,6.2331,6.231,6.2288,6.2267,6.2239,6.2215,6.2188,6.2162,6.2151,6.2143,6.2145,6.2145,6.2141,6.2137,6.2142,6.2152,6.2152,6.2152,6.2152,6.2152,6.2152,6.2455,6.2435,6.2423,6.2394,6.2377,6.2355,6.2342,6.2325,6.2307,6.2278,6.2259,6.2242,6.2218,6.219,6.2168,6.216,6.2152,6.2156,6.2146,6.2143,6.2141,6.214,6.2144,6.2154,6.2154,6.2152,6.2152,6.2152]}]]